This is the latest recevied weather packets stored in our database for station/object SP1BMW-13. If no packets are shown the sender has not sent any weather packets the latest 10 day(s).
| Time | Temp. | Humidity | Pressure | Rain* | Wind** | Luminosity | Snow |
|---|---|---|---|---|---|---|---|
| 1777158706 | 5.56° C | 80% | 1012.7 hPa | 0 mm | 1.79 m/s, 293° | 0 W/m² | - |
| 1777158646 | 5.56° C | 80% | 1012.8 hPa | 0 mm | 1.79 m/s, 289° | 0 W/m² | - |
| 1777158585 | 5.56° C | 80% | 1012.8 hPa | 0 mm | 1.34 m/s, 323° | 0 W/m² | - |
| 1777158526 | 5.56° C | 81% | 1013 hPa | 0 mm | 0.89 m/s, 269° | 0 W/m² | - |
| 1777158466 | 5.56° C | 81% | 1013 hPa | 0 mm | 1.34 m/s, 213° | 0 W/m² | - |
| 1777158406 | 5.56° C | 81% | 1012.9 hPa | 0 mm | 0.89 m/s, 220° | 0 W/m² | - |
| 1777158345 | 5.56° C | 81% | 1012.9 hPa | 0 mm | 0.89 m/s, 219° | 0 W/m² | - |
| 1777158286 | 5.56° C | 81% | 1012.8 hPa | 0 mm | 0.89 m/s, 236° | 0 W/m² | - |
| 1777158226 | 5.56° C | 81% | 1013 hPa | 0 mm | 1.79 m/s, 269° | 0 W/m² | - |
| 1777158166 | 5.56° C | 81% | 1012.8 hPa | 0 mm | 1.34 m/s, 263° | 0 W/m² | - |
| 1777158106 | 5.56° C | 81% | 1012.9 hPa | 0 mm | 0.89 m/s, 103° | 0 W/m² | - |
| 1777158046 | 5.56° C | 81% | 1012.7 hPa | 0 mm | 1.34 m/s, 247° | 0 W/m² | - |
| 1777157986 | 5.56° C | 81% | 1012.5 hPa | 0 mm | 2.68 m/s, 226° | 0 W/m² | - |
| 1777157926 | 5.56° C | 82% | 1012.8 hPa | 0 mm | 1.79 m/s, 317° | 0 W/m² | - |
| 1777157866 | 5.56° C | 82% | 1012.6 hPa | 0 mm | 1.34 m/s, 272° | 0 W/m² | - |
| 1777157806 | 5.56° C | 82% | 1012.8 hPa | 0 mm | 0.89 m/s, 287° | 0 W/m² | - |
| 1777157746 | 5.56° C | 82% | 1012.6 hPa | 0 mm | 0.89 m/s, 257° | 0 W/m² | - |
| 1777157686 | 5.56° C | 82% | 1012.9 hPa | 0 mm | 0.89 m/s, 253° | 0 W/m² | - |
| 1777157626 | 5.56° C | 82% | 1012.8 hPa | 0 mm | 0.45 m/s, 315° | 0 W/m² | - |
| 1777157566 | 5.56° C | 82% | 1012.6 hPa | 0 mm | 0.89 m/s, 277° | 0 W/m² | - |
| 1777157505 | 5.56° C | 82% | 1012.8 hPa | 0 mm | 1.79 m/s, 293° | 0 W/m² | - |
| 1777157445 | 5.56° C | 82% | 1012.6 hPa | 0 mm | 0.45 m/s, 280° | 0 W/m² | - |
| 1777157386 | 5.56° C | 82% | 1012.6 hPa | 0.25 mm | 0.89 m/s, 313° | 0 W/m² | - |
| 1777157326 | 5.56° C | 82% | 1012.6 hPa | 0.25 mm | 0.45 m/s, 51° | 0 W/m² | - |
| 1777157266 | 5.56° C | 82% | 1012.4 hPa | 0.25 mm | 0.89 m/s, 283° | 0 W/m² | - |
* Rain latest hour (hover to see other rain measurements)
** Current wind speed in m/s (hover to see current wind gust speed)